Weather History for EGJB - March, 2013

Change the Weather History Date:

Sunday, March 17, 2013

  Actual Average Record
Temperature  
Mean Temperature 42 °F -  
Max Temperature 45 °F 50 °F 57 °F (2009)
Min Temperature 38 °F 43 °F 37 °F (2006)
Degree Days  
Heating Degree Days 23    
Moisture  
Dew Point 39 °F    
Average Humidity 88    
Maximum Humidity 100    
Minimum Humidity 76    
Precipitation  
Precipitation 0.08 in - - ()
Sea Level Pressure  
Sea Level Pressure 29.25 in    
Wind  
Wind Speed 14 mph ()    
Max Wind Speed 25 mph    
Max Gust Speed 29 mph    
Visibility 6.4 miles    
Events Rain    
Averages and records for this station are not official NWS values.
T = Trace of Precipitation, MM = Missing Value Source: Averaged Metar Reports

Daily Weather History Graph

Daily Weather History Graph

Search for Another Location

Airport or City:

Trip Planner

Search our weather history database for the weather conditions in past years. The results will help you decide how hot, cold, wet, or windy it might be!

Date:

Astronomy

Mar. 17, 2013 Rise Set
Actual Time 6:19 AM GMT 6:18 PM GMT
Civil Twilight 5:47 AM GMT 6:50 PM GMT
Nautical Twilight 5:10 AM GMT 7:28 PM GMT
Astronomical Twilight 4:32 AM GMT 8:06 PM GMT
Moon 8:51 AM GMT (3/17) No Moon Set
Length of Visible Light 13h 02m
Length of Day
11h 59m
Waxing Crescent, 30% of the Moon is Illuminated
Mar 17
Waxing Crescent
Mar 19
First Quarter
Mar 27
Full
Apr 3
Last Quarter
Apr 10
New

Hourly Weather History & Observations

Time (GMT) Temp. Windchill Dew Point Humidity Pressure Visibility Wind Dir Wind Speed Gust Speed Precip Events Conditions
12:00 AM 43 °F - 40 °F 86% 29.38 in 22 mi SSW 13.8 mph - -   Partly Cloudy
3:00 AM 42 °F - 40 °F 88% 29.32 in 22 mi South 15.0 mph - -   Partly Cloudy
3:50 AM 42.8 °F 35.1 °F 39.2 °F 87% 29.27 in 6.2 mi South 16.1 mph - N/A   Partly Cloudy
4:20 AM 42.8 °F 35.4 °F 39.2 °F 87% 29.27 in 6.2 mi South 15.0 mph - N/A   Partly Cloudy
4:50 AM 42.8 °F 34.8 °F 41.0 °F 93% 29.27 in 6.2 mi South 17.3 mph - N/A   Scattered Clouds
5:20 AM 42.8 °F 34.5 °F 39.2 °F 87% 29.24 in 6.2 mi South 18.4 mph - N/A   Scattered Clouds
5:50 AM 42.8 °F 34.5 °F 39.2 °F 87% 29.24 in 6.2 mi South 18.4 mph - N/A   Partly Cloudy
6:00 AM 42 °F - 39 °F 87% 29.26 in 12 mi South 18.4 mph - -   Mostly Cloudy
6:20 AM 42.8 °F 35.1 °F 39.2 °F 87% 29.24 in 6.2 mi South 16.1 mph - N/A   Partly Cloudy
6:50 AM 42.8 °F 34.8 °F 39.2 °F 87% 29.24 in 6.2 mi South 17.3 mph - N/A   Partly Cloudy
7:20 AM 42.8 °F 34.8 °F 39.2 °F 87% 29.21 in 6.2 mi South 17.3 mph - N/A Rain Light Rain Showers
7:50 AM 41.0 °F 32.5 °F 39.2 °F 93% 29.21 in 6.2 mi South 17.3 mph - N/A Rain Light Rain Showers
8:20 AM 42.8 °F 35.4 °F 39.2 °F 87% 29.21 in 6.2 mi South 15.0 mph 28.8 mph N/A Rain Light Rain Showers
8:50 AM 41.0 °F 32.8 °F 39.2 °F 93% 29.21 in 5.6 mi South 16.1 mph - N/A Rain Rain Showers
9:00 AM 41 °F - 39 °F 90% 29.23 in 6 mi South 16.1 mph - - Rain Heavy Rain Showers
9:20 AM 41.0 °F 33.1 °F 39.2 °F 93% 29.18 in 6.2 mi South 15.0 mph - N/A Rain Rain Showers
9:50 AM 41.0 °F 33.9 °F 39.2 °F 93% 29.18 in 6.2 mi SSW 12.7 mph - N/A Rain Light Rain Showers
10:20 AM 42.8 °F 35.4 °F 41.0 °F 93% 29.18 in 6.2 mi SW 15.0 mph - N/A   Mostly Cloudy
10:50 AM 41.0 °F 34.3 °F 41.0 °F 100% 29.18 in 6.2 mi West 11.5 mph - N/A Rain Light Rain Showers
11:20 AM 39.2 °F 30.8 °F 39.2 °F 100% 29.18 in 6.2 mi WNW 15.0 mph - N/A Rain Light Rain Showers
11:50 AM 41.0 °F 31.6 °F 39.2 °F 93% 29.21 in 6.2 mi WNW 20.7 mph - N/A Rain Light Rain Showers
12:00 PM 40 °F - 39 °F 94% 29.22 in 12 mi WNW 20.7 mph - - Rain Light Rain Showers
12:20 PM 41.0 °F 30.7 °F 39.2 °F 93% 29.21 in 6.2 mi WNW 25.3 mph - N/A   Mostly Cloudy
12:50 PM 42.8 °F 33.5 °F 39.2 °F 87% 29.21 in 6.2 mi WNW 23.0 mph - N/A   Scattered Clouds
1:20 PM 42.8 °F 33.5 °F 37.4 °F 81% 29.24 in 6.2 mi WNW 23.0 mph - N/A   Scattered Clouds
1:50 PM 42.8 °F 34.3 °F 37.4 °F 81% 29.24 in 6.2 mi WNW 19.6 mph - N/A   Scattered Clouds
2:20 PM 42.8 °F 34.8 °F 39.2 °F 87% 29.24 in 6.2 mi West 17.3 mph - N/A   Scattered Clouds
2:50 PM 42.8 °F 34.5 °F 39.2 °F 87% 29.27 in 6.2 mi West 18.4 mph - N/A   Scattered Clouds
3:00 PM 42 °F - 40 °F 88% 29.28 in 7 mi West 18.4 mph - - Rain Light Rain Showers
3:20 PM 42.8 °F 36.2 °F 39.2 °F 87% 29.27 in 6.2 mi WNW 12.7 mph - N/A   Partly Cloudy
3:50 PM 42.8 °F 36.2 °F 39.2 °F 87% 29.27 in 6.2 mi West 12.7 mph - N/A   Scattered Clouds
4:20 PM 44.6 °F 37.4 °F 37.4 °F 76% 29.27 in 6.2 mi West 16.1 mph - N/A   Scattered Clouds
4:50 PM 44.6 °F 38.4 °F 37.4 °F 76% 29.27 in 6.2 mi WSW 12.7 mph - N/A   Partly Cloudy
5:20 PM 44.6 °F 39.2 °F 37.4 °F 76% 29.27 in 6.2 mi WSW 10.4 mph - N/A   Partly Cloudy
5:50 PM 42.8 °F 38.6 °F 37.4 °F 81% 29.27 in 6.2 mi SW 6.9 mph - N/A   Partly Cloudy
6:00 PM 42 °F - 38 °F 81% 29.29 in 25 mi SW 6.9 mph - -   Partly Cloudy
6:20 PM 42.8 °F 39.3 °F 39.2 °F 87% 29.27 in 6.2 mi SSW 5.8 mph - N/A   Partly Cloudy
6:50 PM 42.8 °F 38.0 °F 39.2 °F 87% 29.27 in 6.2 mi SSW 8.1 mph - N/A   Scattered Clouds
7:20 PM 41.0 °F 35.2 °F 37.4 °F 87% 29.27 in 6.2 mi SW 9.2 mph - N/A Rain Light Rain Showers
7:50 PM 41.0 °F 38.0 °F 39.2 °F 93% 29.24 in 6.2 mi WSW 4.6 mph - N/A Rain Light Rain Showers
8:20 PM 41.0 °F - 39.2 °F 93% 29.24 in 5.0 mi Calm Calm - N/A Rain Rain Showers
8:50 PM 39.2 °F 33.0 °F 37.4 °F 93% 29.24 in 4.3 mi West 9.2 mph - N/A Rain Rain Showers
9:00 PM 38 °F - 38 °F 99% 29.28 in 4 mi West 9.2 mph - - Rain Heavy Rain Showers